Regional Weather Roundup
Issued by NWS

Home | Current Version | Previous Version | Graphics & Text | Print | Product List | Glossary On
Versions: 1 2 3 4 5 6 7 8 9 10 11 12 13 14 15 16 17 18 19 20 21 22 23 24 25 26 27 28
000
ASUS45 KBOU 301510
RWRCO

WEATHER ROUNDUP FOR COLORADO
NATIONAL WEATHER SERVICE DENVER/BOULDER CO
900 AM MDT FRI SEP 30 2016

NOTE: "FAIR" INDICATES FEW OR NO CLOUDS BELOW 12000 FEET WITH NO
SIGNIFICANT WEATHER AND/OR OBSTRUCTIONS TO VISIBILITY.

COZ001>005-013-030-031-301600-
...NORTHWEST COLORADO...

CITY           SKY/WX    TMP DP  RH WIND       PRES   REMARKS
CRAIG          CLOUDY    55  51  86 CALM      30.36S
HAYDEN         CLOUDY    54  46  76 E6        30.37S
MEEKER         CLOUDY    55  52  89 CALM      30.37S
MOUNT WERNER   NOT AVBL
STEAMBOAT SPGS CLOUDY    50  49  98 CALM      30.38S
WALDEN           N/A     50  45  81 S6        30.44S
$$

COZ006>008-011-301600-
...WEST CENTRAL VALLEYS...

CITY           SKY/WX    TMP DP  RH WIND       PRES   REMARKS
GRAND JUNCTION CLOUDY    58  55  90 CALM      30.33R
MONTROSE       CLOUDY    56  51  84 SE3       30.38R
EAGLE          CLOUDY    52  50  93 CALM      30.41R
RIFLE          CLOUDY    57  56  96 CALM      30.36S
DELTA          CLOUDY    59  55  87 CALM      30.35R
NUCLA          CLOUDY    54  52  94 CALM      30.41S
$$

COZ017>023-064>068-301600-
...SOUTHWEST COLORADO...

CITY           SKY/WX    TMP DP  RH WIND       PRES   REMARKS
DURANGO        CLOUDY    53  47  79 CALM      30.40R
CORTEZ         FAIR      51  49  92 N3        30.36F
PAGOSA SPRINGS PTSUNNY   55  44  67 CALM      30.43F
TELLURIDE      CLOUDY    47  47  97 CALM      30.51S
WOLF CREEK PAS CLOUDY    36  36 100 MISG      30.64S FOG
$$

COZ009-010-012-014-032>034-037-058>063-301600-
...CENTRAL COLORADO...

CITY           SKY/WX    TMP DP  RH WIND       PRES   REMARKS
ASPEN          CLOUDY    50  48  93 CALM      30.43R
BUENA VISTA    FAIR      56  37  47 E3        30.42S
COPPER MTN     DRZL/FOG  41  37  87 W5        30.62R VSB<1/4
BERTHOUD PASS  HAZE      34  21  60 N10G18    30.63S VSB<1/4 WCI  26
COTTONWOOD PAS CLOUDY    52  37  58 CALM      30.50F
GUNNISON       CLOUDY    52  45  76 CALM      30.44S
KREMMLING      DRIZZLE   50  41  71 CALM      30.43S
LEADVILLE      CLOUDY    45  38  76 NW5       30.50R
SALIDA         CLOUDY    61  41  48 SW6       30.46S
SUNLIGHT       FOG       43  43 100 W6        30.59S VSB 1/4
WILKERSON PASS PTSUNNY   41  32  70 W7        30.59R
$$

COZ069>075-301600-
...SAN LUIS VALLEY/SANGRE DE CRISTO MOUNTAINS...

CITY           SKY/WX    TMP DP  RH WIND       PRES   REMARKS
ALAMOSA        FAIR      54  44  69 SE3       30.40S
LA VETA PASS   FAIR      48  37  66 MISG      30.48S
SAGUACHE       CLOUDY    54  37  54 CALM      30.43F
$$

COZ035-036-038>040-301600-
...NORTHERN COLORADO FRONT RANGE...

CITY           SKY/WX    TMP DP  RH WIND       PRES   REMARKS
DENVER INTL AP PTSUNNY   57  42  57 W8        30.25R
DMNS CITY PARK   N/A     60  46  59 E2        30.25S
AURORA         PTSUNNY   60  42  51 W3        30.27R
FRONT RANGE AP CLOUDY    59  45  58 W9        30.26R
ERIE MUNI ARPT FAIR      59  44  57 CALM      30.24S
BOULDER MUN AP NOT AVBL
CENTENNIAL     PTSUNNY   60  39  45 CALM      30.27R
BROOMFIELD     PTSUNNY   64  43  45 NW3       30.26S
FORT COLLINS   FAIR      57  48  72 S3        30.24R
LONGMONT       FAIR      59  50  71 CALM      30.25S
$$

COZ041-046-047-076>085-087-088-301600-
...PIKES PEAK/PALMER DIVIDE AND SOUTHERN FOOTHILLS...

CITY           SKY/WX    TMP DP  RH WIND       PRES   REMARKS
COLO. SPRINGS  PTSUNNY   64  38  38 W3        30.27S
A. F. ACADEMY  FAIR      64  40  40 N14       30.27S
SCHRIEVER AFB  NOT AVBL
ELLICOTT       NOT AVBL
FALCON         PTSUNNY   65  38  37 N10G17    30.31R
FORT CARSON    FAIR      63  39  40 N3        30.24R
LIMON          FAIR      53  41  63 N5        30.22F
MONUMENT HILL  PTSUNNY   59  41  51 NW10      30.34R
TRINIDAD       FAIR      64  39  39 W8        30.24S
$$

COZ042>045-048>051-090-091-301600-
...NORTHEAST COLORADO...

CITY           SKY/WX    TMP DP  RH WIND       PRES   REMARKS
GREELEY ARPT   PTSUNNY   57  43  58 W5        30.24R
AKRON          FAIR      50  41  71 SE6       30.21R
BURLINGTON     FAIR      53  43  68 S20       30.21R
WRAY           FAIR      50  41  71 E6        30.21F
STERLING       FAIR      48  41  76 N5        30.21R
HOLYOKE        NOT AVBL
FORT MORGAN    FAIR      52  40  64 N8        30.22R
$$

COZ086-089-092>099-301600-
...SOUTHEAST COLORADO...

CITY           SKY/WX    TMP DP  RH WIND       PRES   REMARKS
PUEBLO         FAIR      55  42  61 MISG      30.20S
LA JUNTA       FAIR      54  42  64 N3        30.19R
LAMAR          FAIR      55  44  66 E6        30.15S
SPRINGFIELD      N/A     65  44  46 S10       30.18S
$$




USA.gov is the U.S. government's official web portal to all federal, state and local government web resources and services.